Погода в Монастырище

Украина / Черниговская область     50°48′42″N   32°09′39″E
темп.,
°C
ветер,
м/с
пор.,
м/с
влажн.,
%
обл.,
%
осадки,
мм/ч
давл.,
гПа
погр.,
м
21 января, пт
пт2123:00−1ююз51096100 1.1 1005363
02:00−1юз6119494 1.2 1004663
05:00−3зюз51189100 0.0 1003482
08:00−5зюз6128878 0.0 1004551
11:00−3зюз81392100 0.3 1003989
14:00−3зюз91592100 0.9 10031050
17:00−3зюз91691100 0.4 1002857
20:00−3зюз8149499 0.7 1003788
22 января, сб
сб2223:00−3зюз7138899 0.2 1004708
02:00−3зюз61394100 0.6 1004531
05:00−3зюз51196100 0.2 1005574
08:00−4зюз51093100 0.4 1006480
11:00−3зюз589195 0.1 1008553
14:00−3юз5791100 0.2 1009591
17:00−4юз489792 0.4 1010318
20:00−5ссз489199 1.2 1012309
23 января, вс
вс2323:00−8сз259897 0.0 1014105
02:00−9сз229875 0.1 101526
05:00−9с239871 0.1 101754
08:00−12ссв249764 0.1 102054
11:00−8ссв349170 0.0 1022200
14:00−7ссв4591100 0.0 1024333
17:00−9ссв379769 0.0 1027114
20:00−10ссв389655 0.0 1029137
24 января, пн
пн2423:00−11ссв49955 0.0 1031170
02:00−11ссв41195100 0.0 1031207
05:00−11с61493100 0.0 1030301
08:00−9с71690100 0.0 1030401
11:00−7ссв61292100 0.2 1030447
14:00−6ссв5992100 0.4 1029436
17:00−8ссв4109590 0.0 1030264
20:00−10с499770 0.1 1031186
25 января, вт
вт2523:00−11с389764 0.0 1030141
02:00−12с369639 0.0 1030110
05:00−13ссз379648 0.0 1029110
08:00−13с369632 0.0 1028115
11:00−10ссз3491100 0.0 1027184
14:00−8сз238957 0.0 1025215
17:00−11зсз2297100 0.0 102423
20:00−13юз229762 0.0 102312